Find Starlink 2036

NORAD ID: 47652 Int'l Des: 2021-012 Owner: SPXS Country: US Constellation: starlink operational
LEOCIRCULAR

Live-Position

3D-Globus wird geladen...

Über Starlink 2036

Beschreibung wird geladen...

Nächste Überflüge

Passes for default location (London). Set your location on the main map for personalized predictions.

Höhenverlauf

Loading altitude history...

Zweizeiliger Elementsatz

1 47652U 21012AJ 26123.41170781 .00098474 00000-0 16249-2 0 9999
2 47652 53.1558 163.7293 0007964 13.5017 346.6204 15.51477086288554
Epoch: 3. Mai 2026 • Age: 25 hours

Aktueller Status

Höhe 416.2 km
Geschwindigkeit 7.66 km/s
Subsatellitenpunkt -26.57°S, 117.54°E
Startdatum 16. Feb. 2021
Alter 5.2 years
Typ internet

Technische Details

Klassifizierung Payload
Masse 260.00 kg
Trockenmasse 248.00 kg
Gesamtmasse 260.00 kg
Länge 0.20 m
Durchmesser 2.80 m
Spannweite 9.00 m
Form Box + pan
Hersteller SPXS
Bus-Typ Starlink
Phasenstatus In Orbit
Besitzer/Staat SPXS/US

Most Searched